This demonstration page uses our WeatherBlox Daily Observations layout. Learn more.

Left ArrowRight Arrow

39.51506, -84.39828

Hourly Observations for March 26, 2023

Temp ( °F °C ) Dew Point ( °F °C ) Humidity (%) Winds ( mph kmh ) Pressure ( in mb ) Visibility ( mi km ) Precip ( " mm )
12:15 am 00:15 Clear 35 1.5 34 1.2 98 98 Calm 30.00 1016 10 16 0.00 0.00
12:35 am 00:35 Clear 34 1.2 34 1 99 99 Calm 30.01 1016 10 16 0.00 0.00
12:55 am 00:55 Clear 34 0.9 34 1 N/A Calm 30.02 1017 10 16 0.00 0.00
1:15 am 01:15 Clear 32 0.1 N/A N/A Calm 30.03 1017 10 16 0.00 0.00
1:35 am 01:35 Clear 33 0.8 N/A N/A Calm 30.03 1017 10 16 0.00 0.00
1:55 am 01:55 Clear 34 0.9 N/A N/A Calm 30.03 1017 10 16 0.00 0.00
2:15 am 02:15 Clear 33 0.3 N/A N/A Calm 30.03 1017 10 16 0.00 0.00
2:35 am 02:35 Clear 31 -0.6 N/A N/A Calm 30.05 1017 10 16 0.00 0.00
2:55 am 02:55 Clear 32 -0.2 N/A N/A Calm 30.06 1018 10 16 0.00 0.00
3:15 am 03:15 Clear with Mist and Fog 31 -0.7 N/A N/A Calm 30.06 1018 2 3 0.00 0.00
3:35 am 03:35 Clear 31 -0.3 N/A N/A Calm 30.06 1018 10 16 0.00 0.00
3:55 am 03:55 Clear 31 -0.8 N/A N/A Calm 30.05 1017 10 16 0.00 0.00
4:15 am 04:15 Clear 31 -0.6 N/A N/A Calm 30.06 1018 10 16 0.00 0.00
4:35 am 04:35 Clear 31 -0.6 N/A N/A Calm 30.05 1017 10 16 0.00 0.00
4:55 am 04:55 Clear 31 -0.8 N/A N/A Calm 30.06 1018 10 16 0.00 0.00
5:15 am 05:15 Clear 30 -1.3 N/A N/A Calm 30.06 1018 10 16 0.00 0.00
5:35 am 05:35 Clear with Mist and Fog 30 -1.1 N/A N/A Calm 30.06 1018 2 3 0.00 0.00
5:55 am 05:55 Partly Cloudy with Mist and Fog 30 -0.9 N/A N/A Calm 30.07 1018 4 6 0.00 0.00
6:15 am 06:15 Hazy 29 -1.7 N/A N/A Calm 30.08 1019 7 11 0.00 0.00
6:35 am 06:35 Hazy 29 -1.7 N/A N/A Calm 30.08 1019 7 11 0.00 0.00
6:55 am 06:55 Clear 29 -1.9 N/A N/A Calm 30.08 1019 10 16 0.00 0.00
7:15 am 07:15 Mostly Cloudy with Freezing Fog 28 -2.1 N/A N/A Calm 30.09 1019 1 1 0.00 0.00
7:35 am 07:35 Partly Cloudy 29 -1.7 N/A N/A Calm 30.09 1019 10 16 0.00 0.00
7:55 am 07:55 Mostly Cloudy with Freezing Fog 29 -1.8 N/A N/A Calm 30.09 1019 0 0 0.00 0.00
8:15 am 08:15 Partly Cloudy 29 -1.7 N/A N/A Calm 30.10 1019 10 16 0.00 0.00
8:35 am 08:35 Mostly Cloudy with Freezing Fog 31 -0.7 N/A N/A Calm 30.10 1019 0 0 0.00 0.00
8:55 am 08:55 Sunny 33 0.3 N/A N/A Calm 30.09 1019 10 16 0.00 0.00
9:15 am 09:15 Sunny 36 2.1 N/A N/A Calm 30.09 1019 10 16 0.00 0.00
9:35 am 09:35 Sunny 38 3.6 38 3.2 97 97 Calm 30.08 1019 10 16 0.00 0.00
9:55 am 09:55 Sunny 41 5.1 38 3.2 87 87 Calm 30.08 1019 10 16 0.00 0.00
10:15 am 10:15 Sunny 44 6.9 38 3.3 78 78 Calm 30.08 1018 10 16 0.00 0.00
10:35 am 10:35 Sunny 47 8.3 37 2.9 69 69 Calm 30.06 1018 10 16 0.00 0.00
10:55 am 10:55 Sunny 49 9.6 37 2.8 62 62 S 3 6 30.06 1018 10 16 0.00 0.00
11:15 am 11:15 Sunny 52 10.9 36 2.2 55 55 SE 6 9 30.06 1018 10 16 0.00 0.00
11:35 am 11:35 Sunny 53 11.5 35 1.8 51 51 SE 8 13 30.06 1018 10 16 0.00 0.00
11:55 am 11:55 Sunny 53 11.8 33 0.4 45 45 SSE 5 7 30.05 1018 10 16 0.00 0.00
12:15 pm 12:15 Sunny 54 12.4 33 0.7 45 45 SSE 6 9 30.04 1017 10 16 0.00 0.00
12:35 pm 12:35 Sunny 56 13.3 33 0.4 41 41 SSE 8 13 30.04 1017 10 16 0.00 0.00
12:55 pm 12:55 Sunny 58 14.3 33 0.4 39 39 ESE 8 13 30.04 1017 10 16 0.00 0.00
1:15 pm 13:15 Sunny 58 14.5 29 -1.4 33 33 SE 9 15 30.03 1017 10 16 0.00 0.00
1:35 pm 13:35 Sunny 59 15.1 29 -1.9 31 31 ESE 8 13 30.03 1017 10 16 0.00 0.00
1:55 pm 13:55 Sunny 60 15.5 30 -0.9 32 32 E 8 13 30.02 1016 10 16 0.00 0.00
2:15 pm 14:15 Sunny 61 15.9 30 -0.9 32 32 ESE 9 15 30.02 1016 10 16 0.00 0.00
2:35 pm 14:35 Sunny 61 16.3 31 -0.5 32 32 SE 13 20 30.00 1016 10 16 0.00 0.00
2:55 pm 14:55 Sunny 61 16.3 30 -1 31 31 ESE 9 15 29.99 1016 10 16 0.00 0.00
3:15 pm 15:15 Sunny 62 16.9 30 -0.9 30 30 S 9 15 29.99 1016 10 16 0.00 0.00
3:35 pm 15:35 Sunny 63 17.1 31 -0.3 31 31 SSE 9 15 29.99 1016 10 16 0.00 0.00
3:55 pm 15:55 Sunny 63 17.2 31 -0.3 30 30 SSW 13 20 29.99 1016 10 16 0.00 0.00
4:15 pm 16:15 Sunny 63 17 31 -0.5 30 30 S 8 13 29.99 1016 10 16 0.00 0.00
4:35 pm 16:35 Sunny 63 17.1 31 -0.4 30 30 ESE 7 11 29.99 1016 10 16 0.00 0.00
4:55 pm 16:55 Sunny 63 17.2 30 -1.1 29 29 SSE 6 9 29.99 1016 10 16 0.00 0.00
5:15 pm 17:15 Sunny 64 17.5 30 -1 28 28 SW 12 19 29.99 1016 10 16 0.00 0.00
5:35 pm 17:35 Sunny 64 17.5 30 -0.9 29 29 S 13 20 29.98 1015 10 16 0.00 0.00
5:55 pm 17:55 Sunny 63 17.4 30 -1.1 28 28 SSE 13 20 29.97 1015 10 16 0.00 0.00
6:15 pm 18:15 Sunny 63 17.4 30 -1.2 28 28 SSE 10 17 29.97 1015 10 16 0.00 0.00
6:35 pm 18:35 Sunny 63 17.2 30 -0.9 29 29 SSE 10 17 29.96 1015 10 16 0.00 0.00
6:55 pm 18:55 Sunny 63 17.1 30 -1.1 29 29 S 7 11 29.95 1014 10 16 0.00 0.00
7:15 pm 19:15 Sunny 62 16.6 31 -0.6 31 31 S 9 15 29.95 1014 10 16 0.00 0.00
7:35 pm 19:35 Sunny 61 16 31 -0.7 32 32 S 7 11 29.94 1014 10 16 0.00 0.00
7:55 pm 19:55 Sunny 59 15.1 31 -0.6 34 34 S 5 7 29.95 1014 10 16 0.00 0.00
8:15 pm 20:15 Clear 55 12.6 33 0.5 43 43 S 3 6 29.95 1014 10 16 0.00 0.00
8:35 pm 20:35 Clear 53 11.4 36 2.1 53 53 Calm 29.96 1014 10 16 0.00 0.00
8:55 pm 20:55 Clear 47 8.3 37 2.5 67 67 Calm 29.96 1015 10 16 0.00 0.00
9:15 pm 21:15 Clear 47 8.2 38 3.1 70 70 Calm 29.96 1015 10 16 0.00 0.00
9:35 pm 21:35 Clear 46 7.9 36 2.4 68 68 Calm 29.96 1015 10 16 0.00 0.00
9:55 pm 21:55 Clear 45 7.2 36 2.4 71 71 Calm 29.97 1015 10 16 0.00 0.00
10:15 pm 22:15 Clear 44 6.5 38 3.2 79 79 Calm 29.97 1015 10 16 0.00 0.00
10:35 pm 22:35 Clear 44 6.6 38 3.2 79 79 Calm 29.97 1015 10 16 0.00 0.00
10:55 pm 22:55 Clear 43 6 37 2.8 80 80 WSW 3 6 29.96 1015 10 16 0.00 0.00
11:15 pm 23:15 Clear 42 5.6 37 3 83 83 Calm 29.96 1015 10 16 0.00 0.00
11:35 pm 23:35 Clear 42 5.8 38 3.2 83 83 Calm 29.95 1014 10 16 0.00 0.00
11:55 pm 23:55 Clear 43 6.1 37 3 80 80 Calm 29.94 1014 10 16 0.00 0.00

Powered by AerisWeather